Weather in Anan'ye

Russia / Nizhny Novgorod Oblast'     55°50′16″N   45°16′08″E
temp.,
°C
wind,
m/s
gust,
m/s
humid.,
%
clouds,
%
prec.,
mm/h
press.,
hPa
HPBL,
m
12 may, wed
wed1200:00+13ene229637 2.0 102725
03:00+12nne22945 2.1 102724
06:00+14ene388564 0.0 1026202
09:00+19e57705 0.0 1026435
12:00+23ese58515 0.0 10251914
15:00+23se510515 0.0 10242518
18:00+20se486899 0.0 1024251
21:00+16se3468100 0.1 102559
13 may, thu
thu1300:00+15ese386965 0.0 1024170
03:00+14ese367921 0.0 102494
06:00+15ese378143 0.0 1024209
09:00+18ese5117014 0.0 1023547
12:00+19ese61263100 0.0 1022743
15:00+16e61480100 0.9 1021593
18:00+17se5147985 0.1 1019603
21:00+15se61492100 2.0 1019362
14 may, fri
fri1400:00+13sse4119157 1.4 1019207
03:00+13s36950 1.4 101993
06:00+15ssw24916 0.0 1020133
09:00+19ssw347885 0.0 1021489
12:00+22ssw3464100 0.0 10201007
15:00+23sse346099 0.0 10201257
18:00+22ese237214 0.1 101875
21:00+17se228574 0.1 101715
15 may, sat
sat1500:00+16s3384100 0.0 101733
03:00+15s2289100 0.0 101723
06:00+17sse268569 0.0 1017168
09:00+21s596459 0.0 1016468
12:00+24s7135481 0.0 1016863
15:00+25s713525 0.0 10161070
18:00+22s6146197 0.0 1015497
21:00+17s41579100 0.0 1015306
16 may, sun
sun1600:00+16sse41378100 0.0 1015246
03:00+15s41373100 0.0 1015248
06:00+16s397863 0.0 1015207
09:00+21ssw576465 0.0 1015513
12:00+23ssw5759100 0.0 1015998
15:00+25sw585570 0.0 10151855
18:00+21w477665 1.5 1015246
21:00+17wsw228367 1.7 101623